SKW420 KLAS-KASE

Flight info

Callsign SKW420
Flight time 1h 11m
Altitude 37000
Route GIDGT3 TUKRR SLIPY LOYYD1
Aircraft CRJ7/M-SDFGIRWY/S

Departure

Time 2026-05-04 00:53
Airport Harry Reid International Airport (KLAS)

Arrival

Time 2026-05-04 02:04
Airport Aspen-Pitkin County Airport (Sardy Field) (KASE)
Time Latitude Longitude Altitude Speed Heading
2026-05-04 00:36 36.08019 -115.14949 2186 ft 0 kts 65°
2026-05-04 00:38 36.08019 -115.14950 2186 ft 0 kts 65°
2026-05-04 00:45 36.08022 -115.14942 2190 ft 2 kts 66°
2026-05-04 00:45 36.08025 -115.14905 2188 ft 7 kts 97°
2026-05-04 00:46 36.08000 -115.14866 2186 ft 6 kts 154°
2026-05-04 00:46 36.07958 -115.14842 2190 ft 8 kts 156°
2026-05-04 00:46 36.07913 -115.14820 2186 ft 1 kts 169°
2026-05-04 00:46 36.07912 -115.14820 2186 ft 0 kts 170°
2026-05-04 00:47 36.07900 -115.14818 2188 ft 5 kts 177°
2026-05-04 00:47 36.07843 -115.14819 2189 ft 9 kts 179°
2026-05-04 00:47 36.07789 -115.14780 2187 ft 9 kts 118°
2026-05-04 00:47 36.07778 -115.14698 2186 ft 10 kts 94°
2026-05-04 00:48 36.07771 -115.14601 2188 ft 13 kts 95°
2026-05-04 00:48 36.07764 -115.14485 2186 ft 14 kts 95°
2026-05-04 00:48 36.07755 -115.14354 2186 ft 16 kts 94°
2026-05-04 00:48 36.07753 -115.14208 2186 ft 18 kts 91°
2026-05-04 00:49 36.07754 -115.14046 2186 ft 19 kts 90°
2026-05-04 00:49 36.07754 -115.13875 2187 ft 20 kts 90°
2026-05-04 00:49 36.07754 -115.13693 2187 ft 22 kts 90°
2026-05-04 00:49 36.07754 -115.13499 2188 ft 23 kts 90°
2026-05-04 00:50 36.07755 -115.13295 2187 ft 25 kts 90°
2026-05-04 00:50 36.07755 -115.13077 2187 ft 26 kts 90°
2026-05-04 00:50 36.07755 -115.12847 2186 ft 27 kts 90°
2026-05-04 00:50 36.07755 -115.12611 2186 ft 28 kts 89°
2026-05-04 00:51 36.07756 -115.12369 2186 ft 27 kts 90°
2026-05-04 00:51 36.07756 -115.12183 2186 ft 9 kts 90°
2026-05-04 00:51 36.07732 -115.12132 2189 ft 7 kts 155°
2026-05-04 00:51 36.07690 -115.12124 2189 ft 6 kts 178°
2026-05-04 00:52 36.07656 -115.12131 2188 ft 4 kts 219°
2026-05-04 00:52 36.07644 -115.12161 2188 ft 4 kts 257°
2026-05-04 00:52 36.07643 -115.12182 2191 ft 1 kts 270°
2026-05-04 00:52 36.07643 -115.12183 2190 ft 0 kts 270°
2026-05-04 00:53 36.07643 -115.12197 2189 ft 16 kts 270°
2026-05-04 00:53 36.07642 -115.12695 2187 ft 98 kts 269°
2026-05-04 00:53 36.07644 -115.13819 2217 ft 157 kts 269°
2026-05-04 00:53 36.07669 -115.15198 3026 ft 163 kts 264°
2026-05-04 00:54 36.07728 -115.16623 3820 ft 162 kts 265°
2026-05-04 00:54 36.07729 -115.18126 4451 ft 192 kts 264°
2026-05-04 00:54 36.07712 -115.19844 5327 ft 208 kts 264°
2026-05-04 00:54 36.07674 -115.21665 6273 ft 215 kts 264°
2026-05-04 00:55 36.07643 -115.23525 7015 ft 220 kts 263°
2026-05-04 00:55 36.07641 -115.25469 7624 ft 233 kts 269°
2026-05-04 00:55 36.08216 -115.27388 8368 ft 250 kts 301°
2026-05-04 00:55 36.09604 -115.28818 8909 ft 275 kts 330°
2026-05-04 00:56 36.11483 -115.29566 9452 ft 291 kts 345°
2026-05-04 00:56 36.13498 -115.29885 10212 ft 296 kts
2026-05-04 00:56 36.15510 -115.29263 10836 ft 304 kts 28°
2026-05-04 00:56 36.17176 -115.27683 11525 ft 303 kts 52°
2026-05-04 00:57 36.18261 -115.25414 11870 ft 316 kts 75°
2026-05-04 00:57 36.18702 -115.22724 12151 ft 331 kts 86°
2026-05-04 00:57 36.19013 -115.19815 12365 ft 353 kts 86°
2026-05-04 00:57 36.19385 -115.16743 12831 ft 366 kts 84°
2026-05-04 00:58 36.19702 -115.13670 13914 ft 356 kts 89°
2026-05-04 00:58 36.19787 -115.10578 14511 ft 364 kts 93°
2026-05-04 00:58 36.19722 -115.07389 15084 ft 377 kts 96°
2026-05-04 00:58 36.19621 -115.04124 15997 ft 378 kts 95°
2026-05-04 00:59 36.19574 -115.00902 17143 ft 375 kts 93°
2026-05-04 00:59 36.19574 -114.97633 17788 ft 385 kts 93°
2026-05-04 00:59 36.19581 -114.94272 18307 ft 395 kts 93°
2026-05-04 00:59 36.19571 -114.90838 18908 ft 401 kts 93°
2026-05-04 01:00 36.19569 -114.87365 19542 ft 406 kts 93°
2026-05-04 01:00 36.19562 -114.83838 20119 ft 413 kts 93°
2026-05-04 01:00 36.19553 -114.80252 20642 ft 420 kts 93°
2026-05-04 01:00 36.19545 -114.76609 21153 ft 427 kts 93°
2026-05-04 01:01 36.19534 -114.72910 21636 ft 434 kts 94°
2026-05-04 01:01 36.19509 -114.69148 22132 ft 440 kts 94°
2026-05-04 01:01 36.19506 -114.65372 22577 ft 448 kts 93°
2026-05-04 01:01 36.19510 -114.61441 23082 ft 454 kts 94°
2026-05-04 01:02 36.19522 -114.57515 23494 ft 460 kts 94°
2026-05-04 01:02 36.19527 -114.53530 23871 ft 465 kts 94°
2026-05-04 01:02 36.19516 -114.49496 24262 ft 471 kts 94°
2026-05-04 01:02 36.19504 -114.45482 24647 ft 475 kts 94°
2026-05-04 01:03 36.19482 -114.41370 25024 ft 481 kts 94°
2026-05-04 01:03 36.19460 -114.37210 25389 ft 486 kts 94°
2026-05-04 01:03 36.19439 -114.33007 25744 ft 491 kts 94°
2026-05-04 01:03 36.19419 -114.28703 26099 ft 495 kts 94°
2026-05-04 01:04 36.19404 -114.24427 26446 ft 500 kts 92°
2026-05-04 01:04 36.19657 -114.20161 26815 ft 507 kts 84°
2026-05-04 01:04 36.20243 -114.15833 27131 ft 512 kts 80°
2026-05-04 01:04 36.20918 -114.11484 27445 ft 516 kts 82°
2026-05-04 01:05 36.21516 -114.07087 27755 ft 521 kts 83°
2026-05-04 01:05 36.22021 -114.02624 28056 ft 524 kts 84°
2026-05-04 01:05 36.22532 -113.98139 28377 ft 528 kts 83°
2026-05-04 01:05 36.23066 -113.93618 28657 ft 532 kts 83°
2026-05-04 01:06 36.23609 -113.89068 28974 ft 536 kts 83°
2026-05-04 01:06 36.24147 -113.84494 29307 ft 537 kts 83°
2026-05-04 01:06 36.24680 -113.79953 30103 ft 527 kts 83°
2026-05-04 01:06 36.25196 -113.75504 30828 ft 517 kts 83°
2026-05-04 01:07 36.25704 -113.71126 31478 ft 510 kts 82°
2026-05-04 01:07 36.26216 -113.66750 31596 ft 515 kts 82°
2026-05-04 01:07 36.26724 -113.62363 32064 ft 511 kts 82°
2026-05-04 01:07 36.27219 -113.58051 32759 ft 501 kts 82°
2026-05-04 01:08 36.27706 -113.53810 33337 ft 495 kts 82°
2026-05-04 01:08 36.28188 -113.49593 33708 ft 493 kts 82°
2026-05-04 01:08 36.28646 -113.45384 33988 ft 492 kts 82°
2026-05-04 01:08 36.29103 -113.41186 34214 ft 492 kts 82°
2026-05-04 01:09 36.29568 -113.36983 34466 ft 492 kts 82°
2026-05-04 01:09 36.30035 -113.32793 34735 ft 491 kts 82°
2026-05-04 01:09 36.30499 -113.28588 34963 ft 491 kts 82°
2026-05-04 01:09 36.30985 -113.24464 35201 ft 490 kts 78°
2026-05-04 01:10 36.31873 -113.20390 35379 ft 489 kts 68°
2026-05-04 01:10 36.33149 -113.16495 35603 ft 486 kts 60°
2026-05-04 01:10 36.34647 -113.12751 35823 ft 485 kts 59°
2026-05-04 01:10 36.36109 -113.08975 35983 ft 487 kts 63°
2026-05-04 01:11 36.37437 -113.05110 36149 ft 488 kts 65°
2026-05-04 01:11 36.38731 -113.01220 36337 ft 488 kts 64°
2026-05-04 01:11 36.40050 -112.97341 36516 ft 487 kts 63°
2026-05-04 01:11 36.41420 -112.93497 36659 ft 488 kts 63°
2026-05-04 01:12 36.42799 -112.89640 36729 ft 491 kts 63°
2026-05-04 01:12 36.45572 -112.81814 36777 ft 499 kts 63°
2026-05-04 01:13 36.48351 -112.73846 36807 ft 507 kts 63°
2026-05-04 01:13 36.51173 -112.65723 36812 ft 516 kts 63°
2026-05-04 01:14 36.54030 -112.57454 36827 ft 525 kts 64°
2026-05-04 01:14 36.56921 -112.49039 36866 ft 533 kts 64°
2026-05-04 01:15 36.59868 -112.40491 36885 ft 541 kts 64°
2026-05-04 01:15 36.62857 -112.31806 36907 ft 549 kts 64°
2026-05-04 01:16 36.65876 -112.22998 36904 ft 556 kts 64°
2026-05-04 01:16 36.68917 -112.14097 36903 ft 561 kts 64°
2026-05-04 01:17 36.71978 -112.05111 36885 ft 564 kts 64°
2026-05-04 01:17 36.74533 -111.97604 36886 ft 567 kts 64°
2026-05-04 01:18 36.78113 -111.87030 36878 ft 571 kts 64°
2026-05-04 01:18 36.80684 -111.79426 36877 ft 573 kts 64°
2026-05-04 01:19 36.83769 -111.70267 36894 ft 571 kts 64°
2026-05-04 01:19 36.87062 -111.61319 36934 ft 563 kts 57°
2026-05-04 01:20 36.91048 -111.52960 36939 ft 558 kts 55°
2026-05-04 01:20 36.94826 -111.44513 36942 ft 556 kts 57°
2026-05-04 01:21 36.98583 -111.36054 36950 ft 555 kts 56°
2026-05-04 01:21 37.02323 -111.27636 36915 ft 552 kts 57°
2026-05-04 01:22 37.06037 -111.19240 36874 ft 550 kts 57°
2026-05-04 01:22 37.09727 -111.10868 36837 ft 548 kts 57°
2026-05-04 01:23 37.13402 -111.02517 36849 ft 547 kts 57°
2026-05-04 01:23 37.17057 -110.94180 36766 ft 545 kts 57°
2026-05-04 01:24 37.20693 -110.85882 36823 ft 542 kts 57°
2026-05-04 01:24 37.24310 -110.77595 36832 ft 541 kts 57°
2026-05-04 01:25 37.27916 -110.69310 36826 ft 540 kts 57°
2026-05-04 01:25 37.31505 -110.61045 36821 ft 539 kts 57°
2026-05-04 01:26 37.35091 -110.52778 36832 ft 539 kts 57°
2026-05-04 01:26 37.38642 -110.44561 36826 ft 538 kts 57°
2026-05-04 01:27 37.42207 -110.36283 36833 ft 538 kts 57°
2026-05-04 01:27 37.45758 -110.28003 36840 ft 538 kts 57°
2026-05-04 01:28 37.49321 -110.19720 36854 ft 538 kts 58°
2026-05-04 01:28 37.52866 -110.11422 36867 ft 540 kts 57°
2026-05-04 01:29 37.56451 -110.03022 36876 ft 548 kts 57°
2026-05-04 01:29 37.60072 -109.94510 36887 ft 553 kts 58°
2026-05-04 01:30 37.63721 -109.85904 36922 ft 558 kts 58°
2026-05-04 01:30 37.67391 -109.77235 36910 ft 561 kts 58°
2026-05-04 01:31 37.71064 -109.68515 36961 ft 563 kts 58°
2026-05-04 01:31 37.74747 -109.59773 36972 ft 565 kts 58°
2026-05-04 01:32 37.78567 -109.51095 36965 ft 561 kts 49°
2026-05-04 01:32 37.81049 -109.47348 36977 ft 551 kts 38°
2026-05-04 01:32 37.83855 -109.44188 36949 ft 545 kts 32°
2026-05-04 01:33 37.89948 -109.38619 36922 ft 535 kts 22°
2026-05-04 01:33 37.96371 -109.34016 36853 ft 529 kts 21°
2026-05-04 01:33 37.99557 -109.31655 36726 ft 532 kts 22°
2026-05-04 01:34 38.02727 -109.29215 36599 ft 533 kts 23°
2026-05-04 01:34 38.05899 -109.26781 36474 ft 533 kts 23°
2026-05-04 01:34 38.09077 -109.24360 36359 ft 533 kts 23°
2026-05-04 01:34 38.12245 -109.21886 36239 ft 536 kts 25°
2026-05-04 01:35 38.15327 -109.19276 36031 ft 525 kts 27°
2026-05-04 01:35 38.18283 -109.16675 35576 ft 511 kts 27°
2026-05-04 01:35 38.21186 -109.14130 34957 ft 503 kts 27°
2026-05-04 01:35 38.24065 -109.11670 34356 ft 495 kts 27°
2026-05-04 01:36 38.26911 -109.09259 33739 ft 489 kts 28°
2026-05-04 01:36 38.29724 -109.06867 33067 ft 483 kts 28°
2026-05-04 01:36 38.32498 -109.04502 32409 ft 477 kts 28°
2026-05-04 01:36 38.35236 -109.02165 31782 ft 471 kts 28°
2026-05-04 01:37 38.37946 -108.99853 31180 ft 466 kts 29°
2026-05-04 01:37 38.40628 -108.97575 30569 ft 460 kts 29°
2026-05-04 01:37 38.43277 -108.95315 29974 ft 455 kts 29°
2026-05-04 01:37 38.45889 -108.93076 29274 ft 450 kts 29°
2026-05-04 01:38 38.48469 -108.90868 28584 ft 444 kts 29°
2026-05-04 01:38 38.51022 -108.88686 27922 ft 440 kts 29°
2026-05-04 01:38 38.53552 -108.86521 27276 ft 435 kts 30°
2026-05-04 01:38 38.56051 -108.84379 26634 ft 431 kts 30°
2026-05-04 01:39 38.58528 -108.82257 26027 ft 427 kts 30°
2026-05-04 01:39 38.60982 -108.80147 25424 ft 423 kts 30°
2026-05-04 01:39 38.63413 -108.78057 24835 ft 424 kts 30°
2026-05-04 01:39 38.65925 -108.75907 24487 ft 441 kts 30°
2026-05-04 01:40 38.68484 -108.73707 24512 ft 446 kts 30°
2026-05-04 01:40 38.71075 -108.71474 24514 ft 452 kts 31°
2026-05-04 01:40 38.73694 -108.69213 24518 ft 456 kts 31°
2026-05-04 01:40 38.76338 -108.66931 24527 ft 461 kts 31°
2026-05-04 01:41 38.78936 -108.64478 24531 ft 469 kts 41°
2026-05-04 01:41 38.80940 -108.61151 24562 ft 477 kts 58°
2026-05-04 01:41 38.82410 -108.57310 24581 ft 483 kts 67°
2026-05-04 01:41 38.83535 -108.53238 24588 ft 486 kts 71°
2026-05-04 01:42 38.84605 -108.49107 24605 ft 490 kts 70°
2026-05-04 01:42 38.85735 -108.44980 24608 ft 492 kts 69°
2026-05-04 01:42 38.86961 -108.40859 24602 ft 495 kts 68°
2026-05-04 01:42 38.88193 -108.36725 24566 ft 498 kts 68°
2026-05-04 01:43 38.89415 -108.32540 24469 ft 504 kts 69°
2026-05-04 01:43 38.90631 -108.28380 24375 ft 501 kts 68°
2026-05-04 01:43 38.91833 -108.24258 24273 ft 488 kts 68°
2026-05-04 01:43 38.93024 -108.20201 24180 ft 484 kts 68°
2026-05-04 01:44 38.94196 -108.16168 24068 ft 480 kts 69°
2026-05-04 01:44 38.95355 -108.12159 23963 ft 477 kts 69°
2026-05-04 01:44 38.96518 -108.08185 23840 ft 474 kts 68°
2026-05-04 01:44 38.97664 -108.04233 23711 ft 471 kts 69°
2026-05-04 01:45 38.98800 -108.00297 23590 ft 469 kts 69°
2026-05-04 01:45 38.99934 -107.96379 23452 ft 467 kts 69°
2026-05-04 01:45 39.02182 -107.88583 23166 ft 463 kts 69°
2026-05-04 01:46 39.03300 -107.84699 23019 ft 462 kts 69°
2026-05-04 01:46 39.04411 -107.80826 22874 ft 461 kts 69°
2026-05-04 01:46 39.05523 -107.76964 22659 ft 461 kts 69°
2026-05-04 01:46 39.06610 -107.73160 22191 ft 446 kts 69°
2026-05-04 01:47 39.07669 -107.69465 21722 ft 433 kts 69°
2026-05-04 01:47 39.08694 -107.65871 21289 ft 421 kts 69°
2026-05-04 01:47 39.09684 -107.62395 21069 ft 406 kts 69°
2026-05-04 01:47 39.10645 -107.59062 20972 ft 389 kts 68°
2026-05-04 01:48 39.11581 -107.55872 20836 ft 375 kts 68°
2026-05-04 01:48 39.12499 -107.52748 20469 ft 370 kts 68°
2026-05-04 01:48 39.13402 -107.49665 20111 ft 366 kts 68°
2026-05-04 01:48 39.14290 -107.46614 19760 ft 361 kts 68°
2026-05-04 01:49 39.15171 -107.43596 19420 ft 358 kts 68°
2026-05-04 01:49 39.15994 -107.40591 19087 ft 354 kts 76°
2026-05-04 01:49 39.16281 -107.37456 18769 ft 351 kts 89°
2026-05-04 01:49 39.16236 -107.34317 18456 ft 349 kts 92°
2026-05-04 01:50 39.16114 -107.31250 18146 ft 346 kts 93°
2026-05-04 01:50 39.15993 -107.28165 17781 ft 344 kts 92°
2026-05-04 01:50 39.15907 -107.25054 17447 ft 342 kts 91°
2026-05-04 01:50 39.15865 -107.21989 17115 ft 341 kts 90°
2026-05-04 01:51 39.15825 -107.18984 16815 ft 339 kts 90°
2026-05-04 01:51 39.15802 -107.15998 16817 ft 329 kts 90°
2026-05-04 01:51 39.15774 -107.13076 16831 ft 323 kts 90°
2026-05-04 01:51 39.15738 -107.10200 16871 ft 319 kts 91°
2026-05-04 01:52 39.15694 -107.07356 16907 ft 317 kts 91°
2026-05-04 01:52 39.15648 -107.04518 16866 ft 317 kts 91°
2026-05-04 01:52 39.15605 -107.01670 16860 ft 319 kts 90°
2026-05-04 01:52 39.15562 -106.98812 16900 ft 320 kts 91°
2026-05-04 01:53 39.15518 -106.95943 16922 ft 321 kts 90°
2026-05-04 01:53 39.15472 -106.93066 16908 ft 322 kts 91°
2026-05-04 01:53 39.15423 -106.90182 16918 ft 322 kts 90°
2026-05-04 01:53 39.15804 -106.87357 16849 ft 322 kts 64°
2026-05-04 01:54 39.17044 -106.84985 16740 ft 321 kts 46°
2026-05-04 01:54 39.18559 -106.82868 16652 ft 322 kts 44°
2026-05-04 01:54 39.20071 -106.80776 16536 ft 315 kts 44°
2026-05-04 01:54 39.21531 -106.78720 16422 ft 308 kts 45°
2026-05-04 01:55 39.22919 -106.76645 16307 ft 303 kts 47°
2026-05-04 01:55 39.24257 -106.74575 16181 ft 298 kts 47°
2026-05-04 01:55 39.25584 -106.72536 15947 ft 296 kts 47°
2026-05-04 01:55 39.26891 -106.70529 15682 ft 295 kts 47°
2026-05-04 01:56 39.28215 -106.68506 15456 ft 294 kts 46°
2026-05-04 01:56 39.29781 -106.66909 15194 ft 284 kts 18°
2026-05-04 01:56 39.31678 -106.66567 14974 ft 273 kts 351°
2026-05-04 01:56 39.33407 -106.67356 14761 ft 262 kts 323°
2026-05-04 01:57 39.34851 -106.68769 14542 ft 259 kts 317°
2026-05-04 01:57 39.36151 -106.70370 14342 ft 257 kts 307°
2026-05-04 01:57 39.37102 -106.72307 14155 ft 255 kts 296°
2026-05-04 01:57 39.37880 -106.74347 14042 ft 250 kts 294°
2026-05-04 01:58 39.38619 -106.76358 14007 ft 246 kts 294°
2026-05-04 01:58 39.39358 -106.78326 13977 ft 242 kts 295°
2026-05-04 01:58 39.40146 -106.80292 13954 ft 249 kts 296°
2026-05-04 01:58 39.40974 -106.82287 13962 ft 255 kts 296°
2026-05-04 01:59 39.41813 -106.84326 13930 ft 259 kts 296°
2026-05-04 01:59 39.42663 -106.86412 13944 ft 264 kts 296°
2026-05-04 01:59 39.43402 -106.88581 13943 ft 261 kts 279°
2026-05-04 01:59 39.43295 -106.90871 13976 ft 255 kts 257°
2026-05-04 02:00 39.42727 -106.93021 14032 ft 250 kts 243°
2026-05-04 02:00 39.41540 -106.94622 13861 ft 254 kts 210°
2026-05-04 02:00 39.39791 -106.95122 13436 ft 260 kts 181°
2026-05-04 02:00 39.38038 -106.94594 12913 ft 260 kts 163°
2026-05-04 02:01 39.36467 -106.93774 12491 ft 220 kts 160°
2026-05-04 02:01 39.35172 -106.93063 12043 ft 188 kts 161°
2026-05-04 02:01 39.34017 -106.92459 11638 ft 171 kts 162°
2026-05-04 02:01 39.32916 -106.91914 11265 ft 170 kts 163°
2026-05-04 02:02 39.31821 -106.91380 10826 ft 165 kts 163°
2026-05-04 02:02 39.30751 -106.90888 10274 ft 161 kts 165°
2026-05-04 02:02 39.29724 -106.90401 9856 ft 155 kts 163°
2026-05-04 02:02 39.28730 -106.89936 9361 ft 149 kts 163°
2026-05-04 02:03 39.27753 -106.89482 8858 ft 151 kts 163°
2026-05-04 02:03 39.26721 -106.88998 8513 ft 160 kts 163°
2026-05-04 02:03 39.25704 -106.88519 8308 ft 156 kts 162°
2026-05-04 02:03 39.24663 -106.87989 8086 ft 153 kts 161°
2026-05-04 02:04 39.23690 -106.87527 7838 ft 150 kts 161°
2026-05-04 02:04 39.22764 -106.87091 7727 ft 124 kts 162°
2026-05-04 02:04 39.22126 -106.86794 7767 ft 55 kts 160°
2026-05-04 02:04 39.22025 -106.86715 7776 ft 8 kts 101°
2026-05-04 02:05 39.22031 -106.86662 7778 ft 5 kts 83°
2026-05-04 02:05 39.22028 -106.86642 7777 ft 0 kts 125°
2026-05-04 02:05 39.22027 -106.86642 7777 ft 1 kts 126°
2026-05-04 02:05 39.22011 -106.86604 7771 ft 5 kts 99°
2026-05-04 02:06 39.22006 -106.86569 7783 ft 2 kts 101°
2026-05-04 02:06 39.22005 -106.86561 7779 ft 0 kts 101°
2026-05-04 02:06 39.22004 -106.86557 7780 ft 0 kts 101°